When you browse on this site, cookies collect data to enhance your experience and personalize the content and advertising you see.
Visit our Privacy Policy to learn more. By continuing to use the site, you agree to this use of cookies and data.
  • In Latvia
  • List of Countries
  • For 7 days
  • Water Temperature
  • Satellite Maps
  • Weather Map
  • Weather Widgets
  • user-avatar
    Login

    Hourly Weather Sudolek

    Today, 22 February, Friday

    Time Temperature Precipitation Wind Pressure Humidity
    00:00 +3°C° 0.3 mm 5 mps 738 mmHg 86%
    01:00 +5°C° 0.3 mm 5 mps 738 mmHg 88%
    02:00 +5°C° 0.6 mm 5 mps 738 mmHg 89%
    03:00 +5°C° 0.6 mm 5 mps 738 mmHg 90%
    04:00 +5°C° 0.6 mm 5 mps 738 mmHg 91%
    05:00 +1°C° 0.6 mm 6 mps 739 mmHg 88%
    06:00 -2°C° 0.6 mm 7 mps 740 mmHg 85%
    07:00 -5°C° 0.6 mm 8 mps 741 mmHg 82%
    08:00 -4°C° 0.1 mm 7 mps 742 mmHg 76%
    09:00 -4°C° 0.1 mm 7 mps 744 mmHg 70%
    10:00 -4°C° 0.1 mm 6 mps 745 mmHg 63%
    11:00 -4°C° 0 mm 6 mps 746 mmHg 57%
    12:00 -4°C° 0 mm 6 mps 747 mmHg 51%
    13:00 -3°C° 0 mm 6 mps 748 mmHg 46%
    14:00 -4°C° 0 mm 6 mps 748 mmHg 46%
    15:00 -4°C° 0 mm 6 mps 749 mmHg 46%
    16:00 -5°C° 0 mm 6 mps 749 mmHg 47%
    17:00 -5°C° 0 mm 6 mps 750 mmHg 48%
    18:00 -6°C° 0 mm 5 mps 750 mmHg 50%
    19:00 -6°C° 0 mm 5 mps 751 mmHg 52%
    20:00 -7°C° 0 mm 5 mps 752 mmHg 49%
    21:00 -7°C° 0 mm 5 mps 752 mmHg 46%
    22:00 -7°C° 0 mm 4 mps 753 mmHg 44%
    23:00 -7°C° 0 mm 4 mps 753 mmHg 43%

    Tomorrow, 23 February, Saturday

    Time Temperature Precipitation Wind Pressure Humidity
    00:00 -7°C° 0 mm 4 mps 753 mmHg 42%
    01:00 -7°C° 0 mm 4 mps 753 mmHg 41%
    02:00 -7°C° 0 mm 4 mps 754 mmHg 42%
    03:00 -6°C° 0 mm 3 mps 754 mmHg 43%
    04:00 -6°C° 0 mm 3 mps 754 mmHg 44%
    05:00 -7°C° 0 mm 3 mps 754 mmHg 45%
    06:00 -6°C° 0 mm 2 mps 754 mmHg 46%
    07:00 -6°C° 0 mm 2 mps 754 mmHg 48%
    08:00 -6°C° 0 mm 3 mps 754 mmHg 45%
    09:00 -5°C° 0 mm 3 mps 755 mmHg 41%
    10:00 -5°C° 0 mm 4 mps 755 mmHg 38%
    11:00 -4°C° 0 mm 3 mps 755 mmHg 35%
    12:00 -2°C° 0 mm 3 mps 755 mmHg 31%
    13:00 -1°C° 0 mm 3 mps 754 mmHg 28%
    14:00 -2°C° 0 mm 3 mps 754 mmHg 29%
    15:00 -2°C° 0 mm 3 mps 754 mmHg 30%
    16:00 -2°C° 0 mm 3 mps 754 mmHg 31%
    17:00 -2°C° 0 mm 2 mps 754 mmHg 35%
    18:00 -3°C° 0 mm 2 mps 754 mmHg 39%
    19:00 -2°C° 0 mm 1 mps 754 mmHg 43%
    20:00 -2°C° 0 mm 1 mps 754 mmHg 44%
    21:00 -3°C° 0 mm 0 mps 754 mmHg 44%
    22:00 -3°C° 0 mm 0 mps 754 mmHg 45%
    23:00 -3°C° 0 mm 0 mps 754 mmHg 45%

    Day after tomorrow, 24 February, Sunday

    Time Temperature Precipitation Wind Pressure Humidity
    00:00 -3°C° 0 mm 0 mps 754 mmHg 45%
    01:00 -2°C° 0 mm 1 mps 753 mmHg 44%
    02:00 -2°C° 0 mm 1 mps 753 mmHg 44%
    03:00 -2°C° 0 mm 1 mps 753 mmHg 43%
    04:00 -2°C° 0 mm 1 mps 753 mmHg 42%
    05:00 -1°C° 0 mm 1 mps 753 mmHg 41%
    06:00 -1°C° 0 mm 1 mps 753 mmHg 40%
    07:00 -1°C° 0 mm 1 mps 752 mmHg 39%
    08:00 0°C° 0 mm 1 mps 752 mmHg 41%
    09:00 -2°C° 0 mm 2 mps 752 mmHg 43%
    10:00 -2°C° 0 mm 2 mps 752 mmHg 45%
    11:00 -1°C° 0 mm 2 mps 752 mmHg 49%
    12:00 -1°C° 0 mm 2 mps 751 mmHg 53%
    13:00 +1°C° 0 mm 2 mps 751 mmHg 57%
    14:00 +1°C° 0 mm 2 mps 751 mmHg 56%
    15:00 +1°C° 0 mm 2 mps 751 mmHg 55%
    16:00 +2°C° 0 mm 2 mps 751 mmHg 54%
    17:00 +1°C° 0 mm 2 mps 751 mmHg 56%
    18:00 -1°C° 0 mm 2 mps 751 mmHg 58%
    19:00 -2°C° 0 mm 2 mps 751 mmHg 60%
    20:00 -2°C° 0 mm 2 mps 751 mmHg 59%
    21:00 -2°C° 0 mm 2 mps 751 mmHg 57%
    22:00 -2°C° 0 mm 2 mps 751 mmHg 56%
    23:00 -2°C° 0 mm 3 mps 751 mmHg 56%

    25 February, Monday

    Time Temperature Precipitation Wind Pressure Humidity
    00:00 -2°C° 0 mm 3 mps 752 mmHg 56%
    01:00 -2°C° 0 mm 3 mps 752 mmHg 56%
    02:00 -2°C° 0 mm 3 mps 751 mmHg 57%
    03:00 -2°C° 0 mm 3 mps 751 mmHg 58%
    04:00 -3°C° 0 mm 4 mps 751 mmHg 59%
    05:00 -2°C° 0 mm 4 mps 751 mmHg 62%
    06:00 -2°C° 0 mm 4 mps 751 mmHg 65%
    07:00 -2°C° 0 mm 4 mps 752 mmHg 68%
    08:00 -1°C° 0 mm 4 mps 752 mmHg 66%
    09:00 0°C° 0 mm 4 mps 752 mmHg 63%
    10:00 +3°C° 0 mm 4 mps 752 mmHg 61%
    11:00 +4°C° 0 mm 4 mps 751 mmHg 61%
    12:00 +5°C° 0 mm 4 mps 751 mmHg 60%
    13:00 +6°C° 0 mm 4 mps 751 mmHg 60%
    14:00 +5°C° 0 mm 4 mps 750 mmHg 64%
    15:00 +5°C° 0 mm 4 mps 750 mmHg 68%
    16:00 +4°C° 0 mm 3 mps 750 mmHg 71%
    17:00 +3°C° 0 mm 3 mps 750 mmHg 77%
    18:00 +2°C° 0 mm 3 mps 750 mmHg 82%
    19:00 +1°C° 0 mm 3 mps 750 mmHg 87%
    20:00 +1°C° 0 mm 3 mps 750 mmHg 88%
    21:00 +1°C° 0 mm 3 mps 750 mmHg 89%
    22:00 0°C° 0 mm 3 mps 749 mmHg 90%
    23:00 0°C° 0 mm 3 mps 749 mmHg 91%

    26 February, Tuesday

    Time Temperature Precipitation Wind Pressure Humidity
    00:00 0°C° 0 mm 3 mps 749 mmHg 91%
    01:00 0°C° 0 mm 3 mps 748 mmHg 92%
    02:00 -1°C° 0 mm 4 mps 748 mmHg 91%
    03:00 -1°C° 0 mm 4 mps 747 mmHg 90%
    04:00 -1°C° 0 mm 5 mps 747 mmHg 89%
    05:00 -1°C° 0 mm 5 mps 746 mmHg 89%
    06:00 -1°C° 0 mm 5 mps 746 mmHg 89%
    07:00 -1°C° 0 mm 5 mps 746 mmHg 89%
    08:00 +1°C° 0 mm 5 mps 745 mmHg 83%
    09:00 +2°C° 0 mm 6 mps 745 mmHg 77%
    10:00 +4°C° 0 mm 6 mps 745 mmHg 71%
    11:00 +5°C° 0 mm 6 mps 744 mmHg 66%
    12:00 +7°C° 0 mm 6 mps 744 mmHg 61%
    13:00 +8°C° 0 mm 7 mps 743 mmHg 57%
    14:00 +8°C° 0 mm 6 mps 743 mmHg 59%
    15:00 +8°C° 0 mm 6 mps 742 mmHg 61%
    16:00 +8°C° 0 mm 5 mps 742 mmHg 63%
    17:00 +7°C° 0 mm 5 mps 742 mmHg 70%
    18:00 +6°C° 0 mm 5 mps 742 mmHg 76%
    19:00 +5°C° 0 mm 5 mps 742 mmHg 82%
    20:00 +3°C° 0 mm 5 mps 742 mmHg 84%
    21:00 +3°C° 0 mm 5 mps 742 mmHg 87%
    22:00 +3°C° 0 mm 5 mps 742 mmHg 90%
    23:00 +2°C° 0 mm 5 mps 742 mmHg 91%

    27 February, Wednesday

    Time Temperature Precipitation Wind Pressure Humidity
    00:00 +2°C° 0 mm 5 mps 742 mmHg 91%
    01:00 +1°C° 0 mm 5 mps 742 mmHg 91%
    02:00 0°C° 0 mm 5 mps 743 mmHg 91%
    03:00 0°C° 0 mm 4 mps 743 mmHg 90%
    04:00 -1°C° 0 mm 4 mps 743 mmHg 90%
    05:00 -1°C° 0 mm 4 mps 743 mmHg 90%
    06:00 -2°C° 0 mm 4 mps 744 mmHg 91%
    07:00 -2°C° 0 mm 4 mps 744 mmHg 92%
    08:00 -1°C° 0 mm 4 mps 744 mmHg 83%
    09:00 +1°C° 0 mm 4 mps 744 mmHg 74%
    10:00 +3°C° 0 mm 4 mps 745 mmHg 66%
    11:00 +4°C° 0 mm 4 mps 744 mmHg 60%
    12:00 +5°C° 0 mm 4 mps 744 mmHg 55%
    13:00 +7°C° 0 mm 4 mps 744 mmHg 50%
    14:00 +7°C° 0 mm 4 mps 744 mmHg 50%
    15:00 +7°C° 0 mm 4 mps 743 mmHg 50%
    16:00 +8°C° 0 mm 3 mps 743 mmHg 51%
    17:00 +5°C° 0 mm 3 mps 743 mmHg 55%
    18:00 +4°C° 0 mm 3 mps 743 mmHg 60%
    19:00 +4°C° 0 mm 2 mps 743 mmHg 65%
    20:00 +3°C° 0 mm 3 mps 743 mmHg 66%
    21:00 +2°C° 0 mm 3 mps 742 mmHg 68%
    22:00 +2°C° 0 mm 3 mps 742 mmHg 69%
    23:00 +2°C° 0 mm 3 mps 741 mmHg 68%
    Show more